Arlington, WA
on Monday, February 25, 2013

Monday
Previous Day Next Day
Daily Summary
 ActualAverageRecord
Temperature
Mean Temperature °F °F  
Max Temperature 48°F 51°F 55°F (2008)
Min Temperature 39°F 27°F 17°F (2011)
Degree Days
Heating Degree Days 22    
Moisture
Dew Point 33°F   
Average Humidity 70    
Maximum Humidity 93    
Minimum Humidity 50    
Precipitation
Precipitation 0.01 in in in ()
Wind
Wind Speed 13 mph   
Max Wind Speed 20 mph   
Max Gust Speed 30 mph   
Visibility 10 miles   
Events     
Averages and records for this station are not official NWS values.
Key: T is trace of precipitation, MM is missing value
Source: NWS Daily Summary
Seasonal Weather Averages
Time(PST)TemperatureDew PointHumidity Pressure Visibility Wind DirectionWind SpeedGust SpeedPrecipitationEvents Conditions
12:15 AM 42.8°F 35.6°F 76% 29.95 in 10.0 miles SE 19.6 mph 27.6 mph N/A   Overcast
12:35 AM 42.8°F 35.6°F 76% 29.94 in 10.0 miles SE 13.8 mph 23.0 mph N/A   Overcast
12:55 AM 42.8°F 35.6°F 76% 29.94 in 10.0 miles SSE 15.0 mph - N/A   Overcast
1:15 AM 41.0°F 35.6°F 81% 29.93 in 10.0 miles SSE 15.0 mph - N/A   Overcast
1:35 AM 41.0°F 35.6°F 81% 29.93 in 10.0 miles SSE 13.8 mph 19.6 mph N/A   Overcast
1:55 AM 41.0°F 35.6°F 81% 29.92 in 10.0 miles SSE 13.8 mph - N/A   Overcast
2:15 AM 41.0°F 35.6°F 81% 29.91 in 10.0 miles SE 12.7 mph - N/A   Overcast
2:35 AM 41.0°F 35.6°F 81% 29.91 in 10.0 miles SSE 17.3 mph - N/A   Overcast
2:55 AM 39.2°F 37.4°F 93% 29.90 in 10.0 miles SE 16.1 mph - N/A   Overcast
3:15 AM 39.2°F 37.4°F 93% 29.91 in 10.0 miles SE 12.7 mph 18.4 mph N/A   Overcast
3:35 AM 39.2°F 35.6°F 87% 29.91 in 10.0 miles SE 15.0 mph - N/A   Overcast
3:55 AM 39.2°F 35.6°F 87% 29.91 in 10.0 miles SE 16.1 mph - N/A   Overcast
4:15 AM 39.2°F 37.4°F 93% 29.91 in 10.0 miles SE 13.8 mph - N/A   Overcast
4:35 AM 41.0°F 37.4°F 87% 29.92 in 10.0 miles SSE 13.8 mph - N/A   Overcast
4:55 AM 41.0°F 37.4°F 87% 29.92 in 10.0 miles SSE 13.8 mph - N/A   Overcast
5:15 AM 42.8°F 37.4°F 81% 29.92 in 10.0 miles South 10.4 mph - N/A   Overcast
5:35 AM 42.8°F 37.4°F 81% 29.93 in 10.0 miles South 10.4 mph - N/A   Overcast
5:55 AM 42.8°F 37.4°F 81% 29.93 in 10.0 miles South 9.2 mph - N/A   Overcast
6:15 AM 42.8°F 37.4°F 81% 29.94 in 10.0 miles South 9.2 mph - N/A   Overcast
6:35 AM 42.8°F 37.4°F 81% 29.95 in 10.0 miles South 6.9 mph - N/A   Overcast
6:55 AM 41.0°F 35.6°F 81% 29.94 in 10.0 miles South 11.5 mph - N/A   Overcast
7:15 AM 41.0°F 35.6°F 81% 29.95 in 10.0 miles South 10.4 mph - N/A   Mostly Cloudy
7:35 AM 41.0°F 37.4°F 87% 29.95 in 10.0 miles South 6.9 mph - N/A   Mostly Cloudy
7:55 AM 41.0°F 37.4°F 87% 29.96 in 10.0 miles South 8.1 mph - N/A   Overcast
8:15 AM 41.0°F 37.4°F 87% 29.96 in 10.0 miles South 9.2 mph - N/A   Overcast
8:35 AM 41.0°F 35.6°F 81% 29.98 in 10.0 miles SSW 9.2 mph - 0.01 in   Overcast
8:55 AM 39.2°F 35.6°F 87% 29.97 in 10.0 miles SSE 12.7 mph 17.3 mph 0.01 in   Overcast
9:15 AM 39.2°F 35.6°F 87% 29.99 in 10.0 miles South 8.1 mph - N/A   Overcast
9:35 AM 39.2°F 37.4°F 93% 29.99 in 10.0 miles SSE 9.2 mph - N/A   Overcast
9:55 AM 39.2°F 35.6°F 87% 30.00 in 10.0 miles South 12.7 mph - N/A   Overcast
10:15 AM 41.0°F 35.6°F 81% 30.02 in 10.0 miles South 4.6 mph - N/A   Mostly Cloudy
10:35 AM 41.0°F 35.6°F 81% 30.03 in 10.0 miles SSW 9.2 mph - N/A   Overcast
10:55 AM 41.0°F 37.4°F 87% 30.05 in 10.0 miles SSW 8.1 mph 19.6 mph N/A   Overcast
11:15 AM 41.0°F 35.6°F 81% 30.05 in 10.0 miles SSW 4.6 mph - N/A   Overcast
11:35 AM 42.8°F 33.8°F 70% 30.06 in 10.0 miles WSW 8.1 mph 20.7 mph N/A   Overcast
11:55 AM 44.6°F 35.6°F 71% 30.06 in 10.0 miles South 9.2 mph - N/A   Overcast
12:15 PM 44.6°F 35.6°F 71% 30.08 in 10.0 miles SW 11.5 mph 20.7 mph N/A   Overcast
12:35 PM 44.6°F 30.2°F 57% 30.08 in 10.0 miles West 8.1 mph 18.4 mph N/A   Overcast
12:55 PM 46.4°F 32.0°F 57% 30.09 in 10.0 miles West 15.0 mph 18.4 mph N/A   Overcast
1:15 PM 46.4°F 30.2°F 53% 30.09 in 10.0 miles West 11.5 mph 24.2 mph N/A   Overcast
1:35 PM 46.4°F 30.2°F 53% 30.10 in 10.0 miles West 12.7 mph 24.2 mph N/A   Mostly Cloudy
1:55 PM 48.2°F 30.2°F 50% 30.11 in 10.0 miles West 13.8 mph 24.2 mph N/A   Scattered Clouds
2:15 PM 46.4°F 28.4°F 50% 30.11 in 10.0 miles West 15.0 mph 24.2 mph N/A   Partly Cloudy
2:35 PM 46.4°F 30.2°F 53% 30.12 in 10.0 miles WNW 11.5 mph 25.3 mph N/A   Clear
2:55 PM 48.2°F 30.2°F 50% 30.12 in 10.0 miles WNW 16.1 mph 25.3 mph N/A   Clear
3:15 PM 48.2°F 30.2°F 50% 30.12 in 10.0 miles WNW 17.3 mph 24.2 mph N/A   Clear
3:35 PM 48.2°F 30.2°F 50% 30.13 in 10.0 miles WNW 15.0 mph 25.3 mph N/A   Clear
3:55 PM 48.2°F 30.2°F 50% 30.13 in 10.0 miles WNW 16.1 mph 26.5 mph N/A   Clear
4:15 PM 48.2°F 30.2°F 50% 30.15 in 10.0 miles WNW 17.3 mph 28.8 mph N/A   Clear
4:35 PM 46.4°F 28.4°F 50% 30.15 in 10.0 miles West 16.1 mph 29.9 mph N/A   Clear
4:55 PM 46.4°F 28.4°F 50% 30.16 in 10.0 miles WNW 15.0 mph 26.5 mph N/A   Clear
5:15 PM 46.4°F 30.2°F 53% 30.17 in 10.0 miles West 17.3 mph 25.3 mph N/A   Partly Cloudy
5:35 PM 44.6°F 28.4°F 53% 30.18 in 10.0 miles WNW 13.8 mph 21.9 mph N/A   Scattered Clouds
5:55 PM 44.6°F 30.2°F 57% 30.19 in 10.0 miles West 10.4 mph 16.1 mph N/A   Mostly Cloudy
6:15 PM 44.6°F 30.2°F 57% 30.19 in 10.0 miles WNW 8.1 mph 18.4 mph N/A   Overcast
6:55 PM 44.6°F 30.2°F 57% 30.21 in 10.0 miles WNW 11.5 mph 16.1 mph N/A   Overcast
7:15 PM 44.6°F 30.2°F 57% 30.22 in 10.0 miles WNW 8.1 mph - N/A   Overcast
7:35 PM 44.6°F 30.2°F 57% 30.23 in 10.0 miles West 11.5 mph 18.4 mph N/A   Overcast
7:55 PM 44.6°F 30.2°F 57% 30.24 in 10.0 miles West 11.5 mph 19.6 mph N/A   Overcast
8:15 PM 44.6°F 30.2°F 57% 30.25 in 10.0 miles West 4.6 mph 16.1 mph N/A   Overcast
8:35 PM 44.6°F 30.2°F 57% 30.25 in 10.0 miles West 10.4 mph - N/A   Overcast
8:55 PM 42.8°F 30.2°F 61% 30.27 in 10.0 miles WNW 9.2 mph - N/A   Overcast
9:15 PM 42.8°F 30.2°F 61% 30.27 in 10.0 miles WNW 6.9 mph - N/A   Overcast
9:35 PM 42.8°F 30.2°F 61% 30.28 in 10.0 miles WNW 8.1 mph 17.3 mph N/A   Overcast
9:55 PM 42.8°F 30.2°F 61% 30.29 in 10.0 miles WNW 11.5 mph 16.1 mph N/A   Overcast
10:15 PM 42.8°F 30.2°F 61% 30.29 in 10.0 miles West 6.9 mph - N/A   Overcast
10:35 PM 42.8°F 30.2°F 61% 30.30 in 10.0 miles West 5.8 mph - N/A   Overcast
10:55 PM 44.6°F 30.2°F 57% 30.30 in 10.0 miles West 4.6 mph - N/A   Overcast
11:15 PM 42.8°F 30.2°F 61% 30.30 in 10.0 miles SSW 6.9 mph - N/A   Overcast
11:35 PM 41.0°F 32.0°F 70% 30.31 in 10.0 miles SSE 9.2 mph - N/A   Overcast
11:55 PM 41.0°F 32.0°F 70% 30.32 in 10.0 miles South 4.6 mph - N/A   Overcast
Moon Phase
Feb. 25 Feb. 25 Mar. 04 Mar. 11 Mar. 19
Sunrise:06:56 AM (PST) Moon Rise:06:11 PM (PST)2/25
Sunset:05:47 PM (PST) Moon Set:06:26 AM (PST)2/25

Copyright © 2014 The Weather Underground, Inc.